TimeCST,TemperatureF,Dew PointF,Humidity,Sea Level PressureIn,VisibilityMPH,Wind Direction,Wind SpeedMPH,Gust SpeedMPH,PrecipitationIn,Events,Conditions,WindDirDegrees,DateUTC
12:56 AM,53.1,52.0,96,29.88,7.0,Calm,Calm,-,0.01,Rain,Light Rain,0,2013-02-23 06:56:00
1:56 AM,52.0,51.1,97,29.90,4.0,NNW,11.5,-,0.03,Rain,Light Rain,340,2013-02-23 07:56:00
2:56 AM,51.1,50.0,96,29.89,7.0,North,5.8,-,0.03,Rain,Rain,10,2013-02-23 08:56:00
3:09 AM,51.8,50.0,94,29.87,2.0,NE,8.1,-,0.13,Rain,Heavy Rain,50,2013-02-23 09:09:00
3:12 AM,51.8,50.0,94,29.87,3.0,NNE,6.9,-,0.13,Rain-Thunderstorm,Thunderstorms and Rain,20,2013-02-23 09:12:00
3:49 AM,51.8,50.0,94,29.87,5.0,NE,5.8,-,0.25,Rain-Thunderstorm,Heavy Thunderstorms and Rain,50,2013-02-23 09:49:00
3:56 AM,51.1,50.0,96,29.86,3.0,ENE,4.6,-,0.28,Rain-Thunderstorm,Heavy Thunderstorms and Rain,70,2013-02-23 09:56:00
4:20 AM,51.8,50.0,94,29.87,3.0,NE,3.5,-,0.10,Rain-Thunderstorm,Heavy Thunderstorms and Rain,50,2013-02-23 10:20:00
4:56 AM,51.1,50.0,96,29.89,5.0,NNW,5.8,-,0.19,Rain-Thunderstorm,Heavy Thunderstorms and Rain,330,2013-02-23 10:56:00
5:04 AM,51.8,50.0,94,29.91,6.0,WNW,9.2,-,0.02,Rain,Heavy Rain,300,2013-02-23 11:04:00
5:34 AM,51.8,50.0,94,29.91,7.0,NW,6.9,-,0.07,Rain,Rain,320,2013-02-23 11:34:00
5:44 AM,51.8,50.0,94,29.92,7.0,NW,4.6,-,0.09,Rain,Rain,320,2013-02-23 11:44:00
6:10 AM,51.8,50.0,94,29.91,7.0,North,4.6,-,0.02,Rain,Rain,10,2013-02-23 12:10:00
6:24 AM,51.8,50.0,94,29.92,9.0,NNW,3.5,-,0.04,Rain,Rain,340,2013-02-23 12:24:00
6:56 AM,51.1,50.0,96,29.89,10.0,Variable,4.6,-,0.05,Rain,Light Rain,0,2013-02-23 12:56:00
7:07 AM,51.8,50.0,94,29.90,10.0,NNW,9.2,-,0.00,Rain,Light Rain,340,2013-02-23 13:07:00
7:56 AM,51.1,50.0,96,29.91,10.0,North,10.4,-,0.00,,Overcast,350,2013-02-23 13:56:00
8:56 AM,52.0,50.0,93,29.93,10.0,North,6.9,-,N/A,,Overcast,10,2013-02-23 14:56:00
9:56 AM,52.0,50.0,93,29.91,10.0,North,4.6,-,N/A,,Overcast,10,2013-02-23 15:56:00
10:56 AM,54.0,51.1,90,29.91,10.0,North,5.8,-,N/A,,Overcast,360,2013-02-23 16:56:00
11:47 AM,57.2,51.8,82,29.92,10.0,Calm,Calm,-,N/A,,Overcast,0,2013-02-23 17:47:00
11:56 AM,57.0,52.0,83,29.91,10.0,NNW,3.5,-,N/A,,Overcast,330,2013-02-23 17:56:00
12:56 PM,57.9,52.0,81,29.91,10.0,NW,5.8,-,N/A,,Overcast,320,2013-02-23 18:56:00
1:56 PM,57.9,52.0,81,29.87,10.0,North,5.8,-,N/A,,Overcast,360,2013-02-23 19:56:00
2:22 PM,57.2,51.8,82,29.87,10.0,NNW,8.1,-,N/A,,Overcast,340,2013-02-23 20:22:00
2:52 PM,57.2,51.8,82,29.88,10.0,Calm,Calm,-,N/A,,Overcast,0,2013-02-23 20:52:00
2:56 PM,57.9,52.0,81,29.87,10.0,ENE,3.5,-,N/A,,Overcast,60,2013-02-23 20:56:00
3:56 PM,-9999,-9999,N/A,-9999,0.7,North,-9999.0,-,N/A,,Unknown,0,2013-02-23 21:56:00
4:39 PM,55.4,53.6,94,29.86,10.0,Calm,Calm,-,0.01,,Mostly Cloudy,0,2013-02-23 22:39:00
4:46 PM,55.4,53.6,94,29.87,10.0,NNW,3.5,-,0.01,,Mostly Cloudy,340,2013-02-23 22:46:00
4:56 PM,55.9,53.1,90,29.86,10.0,Calm,Calm,-,0.01,,Scattered Clouds,0,2013-02-23 22:56:00
5:56 PM,54.0,53.1,97,29.85,10.0,NE,3.5,-,N/A,,Clear,50,2013-02-23 23:56:00
6:56 PM,54.0,52.0,93,29.88,9.0,Calm,Calm,-,N/A,,Partly Cloudy,0,2013-02-24 00:56:00
7:52 PM,53.6,51.8,94,29.91,10.0,NNW,3.5,-,0.01,,Overcast,330,2013-02-24 01:52:00
7:56 PM,54.0,52.0,93,29.90,10.0,NNW,3.5,-,0.01,,Overcast,340,2013-02-24 01:56:00
8:04 PM,53.6,51.8,94,29.92,10.0,NNW,4.6,-,N/A,,Overcast,340,2013-02-24 02:04:00
8:12 PM,53.6,51.8,94,29.91,10.0,NNW,5.8,-,N/A,,Overcast,340,2013-02-24 02:12:00
8:41 PM,53.6,51.8,94,29.92,10.0,NNW,4.6,-,N/A,,Overcast,340,2013-02-24 02:41:00
8:56 PM,54.0,52.0,93,29.93,10.0,NNW,5.8,-,N/A,,Overcast,340,2013-02-24 02:56:00
9:03 PM,53.6,51.8,94,29.93,10.0,NNW,4.6,-,N/A,,Overcast,340,2013-02-24 03:03:00
9:32 PM,53.6,51.8,94,29.94,10.0,NNW,4.6,-,N/A,,Overcast,330,2013-02-24 03:32:00
9:52 PM,53.6,51.8,94,29.94,10.0,NNW,4.6,-,N/A,,Overcast,340,2013-02-24 03:52:00
9:56 PM,55.0,52.0,89,29.94,10.0,North,5.8,-,N/A,,Overcast,350,2013-02-24 03:56:00
10:22 PM,53.6,51.8,94,29.94,10.0,NNW,6.9,-,N/A,,Overcast,340,2013-02-24 04:22:00
10:53 PM,53.6,50.0,88,29.95,10.0,Calm,Calm,-,N/A,,Mostly Cloudy,0,2013-02-24 04:53:00
10:56 PM,53.1,50.0,89,29.95,10.0,Calm,Calm,-,N/A,,Mostly Cloudy,0,2013-02-24 04:56:00
11:56 PM,51.1,48.9,92,29.96,10.0,NNW,3.5,-,N/A,,Scattered Clouds,330,2013-02-24 05:56:00